Hermosillo, México

6:46 AM MST en Junio 23, 2018 (GMT -0700)
Gen Ignacio Pesqueira Garcia

Tiempo Historia de MMHO - Marzo, 2018

Change the Weather History Date:

Miércoles, Marzo 14, 2018

  Actual Average Record
Temperature  
Temperatura media 74 ° F -  
Temperatura máxima 87 ° F 84 ° F 104 ° F (2013)
Temperatura mínima 62 ° F 54 ° F 46 ° F (2006)
Cooling Degree Days 10    
Growing Degree Days 24 (Base 50)    
Moisture  
Punto de rocío 45 ° F    
Average Humidity 31    
Maximum Humidity 55    
Minimum Humidity 15    
Precipitación  
Precipitación 0.00 pul - - ()
Presión al nivel del mar  
Presión al nivel del mar 29.93 pul    
Viento  
Velocidad del viento 3 mph ()    
Velocidad máxima del viento 12 mph    
Max Gust Speed -    
Visibilidad 9.5 Millas    
Eventos      
Averages and records for this station are not official NWS values.
T = Trace of Precipitation, MM = Missing Value Source: Averaged Metar Reports

Daily Weather History Graph

Daily Weather History Graph

Search for Another Location

Airport or City:

Astronomía

Mar. 14, 2018 Salida Puesta
Hora real 6:34 AM MST 6:32 PM MST
Crepúsculo civil 6:11 AM MST 6:55 PM MST
Crepúsculo náutico 5:43 AM MST 7:23 PM MST
Crepúsculo astronómico 5:16 AM MST 7:50 PM MST
Luna 4:56 AM MST (3/14) 4:09 PM MST (3/14)
Horas de luz 12h 44m
Horas de luz
11h 57m
Creciente menguante, 8% of the Moon is Illuminated
Mar 14
Creciente menguante
Mar 17
Nueva
Mar 24
Cuarto creciente
Mar 31
Luna llena
Abr 8
Cuarto menguante

Hourly Weather History & Observations

Hora (MST) Temp. Punto de rocío Humedad Presión Visibilidad Wind Dir Velocidad del viento Velocidad de ráfagas Precip Eventos Condiciones
12:40 AM 73.4 ° F 46.4 ° F 38% 29.92 pul 10.0 mi Sin viento Sin viento - N/A   Nublado
1:42 AM 73.4 ° F 46.4 ° F 38% 29.90 pul 10.0 mi SO 4.6 mph - N/A   Nublado
2:41 AM 69.8 ° F 44.6 ° F 40% 29.90 pul 10.0 mi Sin viento Sin viento - N/A   Nublado
3:41 AM 69.8 ° F 46.4 ° F 43% 29.89 pul 10.0 mi Sin viento Sin viento - N/A   Nublado
4:43 AM 66.2 ° F 46.4 ° F 49% 29.88 pul 10.0 mi Sin viento Sin viento - N/A   Muy nublado
5:40 AM 66.2 ° F 46.4 ° F 49% 29.90 pul 10.0 mi Sin viento Sin viento - N/A   Muy nublado
6:47 AM 62.6 ° F 46.4 ° F 55% 29.92 pul 10.0 mi Sin viento Sin viento - N/A   Muy nublado
7:40 AM 75.2 ° F 46.4 ° F 36% 29.93 pul 10.0 mi Sin viento Sin viento - N/A   Muy nublado
8:00 AM 65 ° F 46 ° F 38% 29.93 pul 7 mi Este 2.2 mph - -   Parcialmente nublado
8:41 AM 75.2 ° F 46.4 ° F 36% 29.95 pul 10.0 mi Sin viento Sin viento - N/A   Muy nublado
9:46 AM 80.6 ° F 46.4 ° F 30% 29.98 pul 10.0 mi Sin viento Sin viento - N/A   Muy nublado
10:40 AM 84.2 ° F 46.4 ° F 27% 29.96 pul 10.0 mi Sin viento Sin viento - N/A   Nublado
11:43 AM 87.8 ° F 44.6 ° F 22% 29.97 pul 10.0 mi Sin viento Sin viento - N/A   Nublado
12:41 PM 87.8 ° F 44.6 ° F 22% 29.95 pul 10.0 mi Oeste 6.9 mph - N/A   Nublado
1:40 PM 87.8 ° F 44.6 ° F 22% 29.92 pul 10.0 mi OSO 10.4 mph - N/A   Nublado
1:44 PM 85 ° F 45 ° F 15% 29.89 pul 7 mi SO 6.7 mph - -   Muy nublado
2:40 PM 87.8 ° F 44.6 ° F 22% 29.93 pul 10.0 mi OSO 10.4 mph - N/A   Nublado
3:41 PM 87.8 ° F 42.8 ° F 21% 29.92 pul 10.0 mi SSO 11.5 mph - N/A   Nublado
4:41 PM 87.8 ° F 42.8 ° F 21% 29.91 pul 10.0 mi SSO 10.4 mph - N/A   Nublado
4:42 PM 84 ° F 45 ° F 16% 29.88 pul 7 mi SO 4.5 mph - -   Muy nublado
5:40 PM 86.0 ° F 46.4 ° F 25% 29.91 pul 10.0 mi Sur 10.4 mph - N/A   Nublado
6:42 PM 82.4 ° F 39.2 ° F 21% 29.92 pul 10.0 mi OSO 10.4 mph - N/A   Nublado
7:40 PM 80 ° F 44 ° F 18% 29.90 pul 5 mi Oeste 4.5 mph - -   Muy nublado
7:40 PM 78.8 ° F 41.0 ° F 26% 29.93 pul 10.0 mi NO 4.6 mph - N/A   Nublado
8:40 PM 77.0 ° F 42.8 ° F 29% 29.95 pul 10.0 mi OSO 4.6 mph - N/A   Nublado
9:40 PM 75.2 ° F 46.4 ° F 36% 29.96 pul 10.0 mi SO 4.6 mph - N/A   Nublado
10:40 PM 73.4 ° F 48.2 ° F 41% 29.96 pul 10.0 mi OSO 4.6 mph - N/A   Nublado
11:40 PM 71.6 ° F 50.0 ° F 46% 29.95 pul 10.0 mi SO 6.9 mph - N/A   Muy nublado